| time (UTC) | temp F | wind direction | speed MPH | gust MPH | rain 1hr in | rain 24hr in | rain mn in | humidity % | barometer mb |
| 20260506183006 | 56 | 231 | 1.0 | 6.0 | 0.05 | 0.06 | 0.06 | 91 | 1009.0 |
| 20260506182504 | 56 | 239 | 1.0 | 6.0 | 0.04 | 0.05 | 0.05 | 90 | 1009.1 |
| 20260506182005 | 57 | 243 | 2.0 | 8.0 | 0.05 | 0.05 | 0.05 | 90 | 1009.1 |
| 20260506181005 | 57 | 207 | 3.0 | 9.0 | 0.04 | 0.04 | 0.04 | 90 | 1009.1 |
| 20260506180505 | 57 | 178 | 3.0 | 9.0 | 0.04 | 0.04 | 0.04 | 90 | 1009.1 |
| 20260506180005 | 58 | 177 | 2.0 | 6.0 | 0.04 | 0.04 | 0.04 | 90 | 1009.1 |
| 20260506175004 | 57 | 185 | 2.0 | 5.0 | 0.03 | 0.03 | 0.03 | 90 | 1009.3 |
| 20260506174505 | 57 | 212 | 2.0 | 5.0 | 0.03 | 0.03 | 0.03 | 89 | 1009.6 |
| 20260506174005 | 57 | 202 | 2.0 | 6.0 | 0.02 | 0.02 | 0.02 | 89 | 1009.8 |
| 20260506173505 | 58 | 197 | 3.0 | 7.0 | 0.02 | 0.02 | 0.02 | 88 | 1009.8 |
| 20260506173005 | 58 | 226 | 1.0 | 3.0 | 0.01 | 0.01 | 0.01 | 88 | 1010.0 |
| 20260506171505 | 58 | 208 | 3.0 | 6.0 | 0.00 | 0.00 | 0.00 | 86 | 1010.1 |
| 20260506171005 | 59 | 219 | 2.0 | 6.0 | 0.00 | 0.00 | 0.00 | 85 | 1010.1 |
| 20260506170504 | 59 | 259 | 2.0 | 7.0 | 0.00 | 0.00 | 0.00 | 84 | 1010.3 |
| 20260506165505 | 60 | 246 | 3.0 | 7.0 | 0.00 | 0.00 | 0.00 | 83 | 1010.4 |
| 20260506165004 | 60 | 239 | 1.0 | 7.0 | 0.00 | 0.00 | 0.00 | 82 | 1010.4 |
| 20260506164504 | 60 | 232 | 2.0 | 8.0 | 0.00 | 0.00 | 0.00 | 81 | 1010.4 |
| 20260506164004 | 60 | 228 | 2.0 | 8.0 | 0.00 | 0.00 | 0.00 | 81 | 1010.5 |
| 20260506163505 | 60 | 199 | 2.0 | 7.0 | 0.00 | 0.00 | 0.00 | 82 | 1010.5 |
| 20260506163005 | 60 | 251 | 3.0 | 6.0 | 0.00 | 0.00 | 0.00 | 82 | 1010.5 |
| 20260506162505 | 60 | 231 | 2.0 | 3.0 | 0.00 | 0.00 | 0.00 | 82 | 1010.5 |
| 20260506162005 | 60 | 222 | 3.0 | 7.0 | 0.00 | 0.00 | 0.00 | 82 | 1010.5 |
| 20260506161004 | 60 | 210 | 3.0 | 8.0 | 0.00 | 0.00 | 0.00 | 82 | 1010.6 |
| 20260506160505 | 60 | 217 | 3.0 | 8.0 | 0.00 | 0.00 | 0.00 | 81 | 1010.7 |
| 20260506155504 | 61 | 230 | 4.0 | 9.0 | 0.00 | 0.00 | 0.00 | 81 | 1010.8 |
| 20260506155005 | 61 | 230 | 5.0 | 9.0 | 0.00 | 0.00 | 0.00 | 80 | 1010.9 |
| 20260506154504 | 61 | 276 | 3.0 | 10.0 | 0.00 | 0.00 | 0.00 | 81 | 1010.9 |
| 20260506154005 | 61 | 215 | 2.0 | 10.0 | 0.00 | 0.00 | 0.00 | 81 | 1011.0 |
| 20260506153005 | 61 | 228 | 2.0 | 10.0 | 0.00 | 0.00 | 0.00 | 81 | 1011.0 |
| 20260506152504 | 61 | 221 | 3.0 | 9.0 | 0.00 | 0.00 | 0.00 | 81 | 1010.8 |
| 20260506152005 | 61 | 221 | 2.0 | 12.0 | 0.00 | 0.00 | 0.00 | 82 | 1010.8 |
| 20260506151505 | 61 | 221 | 4.0 | 12.0 | 0.00 | 0.00 | 0.00 | 81 | 1010.7 |
| 20260506151005 | 60 | 209 | 2.0 | 8.0 | 0.00 | 0.00 | 0.00 | 82 | 1010.7 |
| 20260506150505 | 60 | 209 | 4.0 | 9.0 | 0.00 | 0.00 | 0.00 | 81 | 1010.8 |
| 20260506150005 | 61 | 213 | 5.0 | 12.0 | 0.00 | 0.00 | 0.00 | 80 | 1010.8 |
| 20260506145504 | 61 | 241 | 2.0 | 8.0 | 0.00 | 0.00 | 0.00 | 81 | 1010.8 |
| 20260506145004 | 61 | 193 | 4.0 | 7.0 | 0.00 | 0.00 | 0.00 | 80 | 1010.8 |
| 20260506144505 | 61 | 212 | 5.0 | 12.0 | 0.00 | 0.00 | 0.00 | 80 | 1010.9 |
| 20260506144004 | 62 | 215 | 5.0 | 9.0 | 0.00 | 0.00 | 0.00 | 79 | 1011.0 |
| 20260506143504 | 62 | 218 | 4.0 | 7.0 | 0.00 | 0.00 | 0.00 | 79 | 1011.1 |
| 20260506142505 | 62 | 227 | 5.0 | 9.0 | 0.00 | 0.00 | 0.00 | 79 | 1011.0 |
| 20260506142004 | 62 | 231 | 6.0 | 15.0 | 0.00 | 0.00 | 0.00 | 80 | 1011.0 |
| 20260506141504 | 62 | 231 | 4.0 | 13.0 | 0.00 | 0.00 | 0.00 | 79 | 1010.9 |
| 20260506141005 | 62 | 202 | 6.0 | 17.0 | 0.00 | 0.00 | 0.00 | 79 | 1011.1 |
| 20260506140505 | 62 | 214 | 6.0 | 12.0 | 0.00 | 0.00 | 0.00 | 80 | 1011.1 |
| 20260506140004 | 62 | 237 | 3.0 | 12.0 | 0.00 | 0.00 | 0.00 | 80 | 1011.2 |
| 20260506135505 | 62 | 204 | 3.0 | 13.0 | 0.00 | 0.00 | 0.00 | 80 | 1011.1 |
| 20260506135004 | 61 | 216 | 3.0 | 12.0 | 0.00 | 0.00 | 0.00 | 80 | 1011.1 |
| 20260506134504 | 61 | 227 | 4.0 | 9.0 | 0.00 | 0.00 | 0.00 | 81 | 1011.0 |
| 20260506134004 | 61 | 231 | 5.0 | 12.0 | 0.00 | 0.00 | 0.00 | 81 | 1011.0 |
| 20260506133505 | 61 | 227 | 5.0 | 12.0 | 0.00 | 0.00 | 0.00 | 81 | 1010.8 |
| 20260506133004 | 60 | 227 | 3.0 | 14.0 | 0.00 | 0.00 | 0.00 | 82 | 1010.8 |
| 20260506132005 | 60 | 220 | 3.0 | 12.0 | 0.00 | 0.00 | 0.00 | 82 | 1010.8 |
| 20260506131504 | 60 | 233 | 5.0 | 9.0 | 0.00 | 0.00 | 0.00 | 81 | 1010.7 |
| 20260506130504 | 61 | 210 | 2.0 | 3.0 | 0.00 | 0.00 | 0.00 | 82 | 1010.9 |
| 20260506130005 | 61 | 215 | 3.0 | 6.0 | 0.00 | 0.00 | 0.00 | 81 | 1010.9 |
| 20260506125004 | 61 | 269 | 3.0 | 13.0 | 0.00 | 0.00 | 0.00 | 81 | 1011.0 |
| 20260506124504 | 61 | 194 | 3.0 | 13.0 | 0.00 | 0.00 | 0.00 | 82 | 1011.1 |
| 20260506123505 | 61 | 228 | 4.0 | 12.0 | 0.00 | 0.00 | 0.00 | 82 | 1011.2 |
| 20260506122505 | 60 | 186 | 2.0 | 9.0 | 0.00 | 0.00 | 0.00 | 83 | 1011.3 |
| 20260506122004 | 60 | 248 | 3.0 | 9.0 | 0.00 | 0.00 | 0.00 | 83 | 1011.3 |
| 20260506121504 | 60 | 231 | 3.0 | 9.0 | 0.00 | 0.00 | 0.00 | 84 | 1011.3 |
| 20260506121004 | 60 | 224 | 2.0 | 7.0 | 0.00 | 0.00 | 0.00 | 85 | 1011.2 |
| 20260506120505 | 59 | 224 | 2.0 | 7.0 | 0.00 | 0.00 | 0.00 | 85 | 1011.2 |
| 20260506115505 | 59 | 247 | 2.0 | 8.0 | 0.00 | 0.00 | 0.00 | 86 | 1011.1 |
| 20260506114505 | 59 | 201 | 3.0 | 8.0 | 0.00 | 0.00 | 0.00 | 86 | 1011.0 |
| 20260506113504 | 58 | 208 | 2.0 | 9.0 | 0.00 | 0.00 | 0.00 | 88 | 1011.1 |
| 20260506113005 | 58 | 220 | 2.0 | 5.0 | 0.00 | 0.00 | 0.00 | 88 | 1011.2 |
| 20260506112505 | 57 | 206 | 1.0 | 3.0 | 0.00 | 0.00 | 0.00 | 89 | 1011.2 |
| 20260506112005 | 57 | 210 | 3.0 | 6.0 | 0.00 | 0.00 | 0.00 | 89 | 1011.2 |
| 20260506111504 | 57 | 208 | 1.0 | 3.0 | 0.00 | 0.00 | 0.00 | 90 | 1011.3 |
| 20260506111005 | 56 | 220 | 2.0 | 5.0 | 0.00 | 0.00 | 0.00 | 91 | 1011.4 |
| 20260506110504 | 56 | 179 | 1.0 | 5.0 | 0.00 | 0.00 | 0.00 | 91 | 1011.2 |
| 20260506110005 | 56 | 208 | 2.0 | 3.0 | 0.00 | 0.00 | 0.00 | 91 | 1011.3 |
| 20260506105504 | 55 | 207 | 1.0 | 3.0 | 0.00 | 0.00 | 0.00 | 91 | 1011.1 |
| 20260506105005 | 55 | 187 | 1.0 | 3.0 | 0.00 | 0.00 | 0.00 | 91 | 1011.2 |
| 20260506104005 | 55 | 200 | 1.0 | 6.0 | 0.00 | 0.00 | 0.00 | 91 | 1011.3 |
| 20260506102004 | 54 | 214 | 0.0 | 2.0 | 0.00 | 0.00 | 0.00 | 91 | 1011.2 |
| 20260506101505 | 54 | 220 | 0.0 | 1.0 | 0.00 | 0.00 | 0.00 | 91 | 1011.2 |
| 20260506101004 | 54 | 220 | 0.0 | 2.0 | 0.00 | 0.00 | 0.00 | 91 | 1011.2 |
| 20260506100504 | 54 | 217 | 0.0 | 2.0 | 0.00 | 0.00 | 0.00 | 91 | 1011.2 |
| 20260506100004 | 54 | 217 | 1.0 | 2.0 | 0.00 | 0.00 | 0.00 | 90 | 1011.1 |
| 20260506095504 | 54 | 181 | 0.0 | 1.0 | 0.00 | 0.00 | 0.00 | 90 | 1011.2 |
| 20260506095004 | 54 | 181 | 0.0 | 1.0 | 0.00 | 0.00 | 0.00 | 90 | 1011.2 |
| 20260506094504 | 54 | 175 | 0.0 | 3.0 | 0.00 | 0.00 | 0.00 | 90 | 1011.1 |
| 20260506094005 | 54 | 198 | 0.0 | 2.0 | 0.00 | 0.00 | 0.00 | 90 | 1011.1 |
| 20260506093504 | 54 | 209 | 0.0 | 2.0 | 0.00 | 0.00 | 0.00 | 90 | 1011.1 |
| 20260506093004 | 54 | 40 | 0.0 | 1.0 | 0.00 | 0.00 | 0.00 | 89 | 1011.1 |
| 20260506092505 | 54 | 40 | 0.0 | 1.0 | 0.00 | 0.00 | 0.00 | 89 | 1011.2 |
| 20260506092005 | 54 | 40 | 0.0 | 1.0 | 0.00 | 0.00 | 0.00 | 90 | 1011.2 |
| 20260506091504 | 54 | 320 | 0.0 | 2.0 | 0.00 | 0.00 | 0.00 | 89 | 1011.2 |
| 20260506091005 | 54 | 213 | 0.0 | 1.0 | 0.00 | 0.00 | 0.00 | 89 | 1011.2 |
| 20260506090504 | 54 | 213 | 1.0 | 2.0 | 0.00 | 0.00 | 0.00 | 89 | 1011.2 |
| 20260506090005 | 55 | 237 | 1.0 | 2.0 | 0.00 | 0.00 | 0.00 | 89 | 1011.3 |
| 20260506085504 | 55 | 237 | 1.0 | 2.0 | 0.00 | 0.00 | 0.00 | 89 | 1011.4 |
| 20260506085004 | 55 | 222 | 2.0 | 6.0 | 0.00 | 0.00 | 0.00 | 89 | 1011.4 |
| 20260506084505 | 55 | 218 | 1.0 | 3.0 | 0.00 | 0.00 | 0.00 | 89 | 1011.3 |
| 20260506083505 | 55 | 200 | 1.0 | 3.0 | 0.00 | 0.00 | 0.00 | 88 | 1011.5 |
| 20260506081504 | 55 | 217 | 1.0 | 3.0 | 0.00 | 0.00 | 0.00 | 88 | 1011.5 |
| 20260506081005 | 55 | 171 | 2.0 | 3.0 | 0.00 | 0.00 | 0.00 | 88 | 1011.5 |
| 20260506080504 | 55 | 229 | 2.0 | 3.0 | 0.00 | 0.00 | 0.00 | 88 | 1011.5 |
| 20260506073504 | 56 | 195 | 1.0 | 3.0 | 0.00 | 0.00 | 0.00 | 87 | 1011.6 |
| 20260506073005 | 56 | 173 | 1.0 | 3.0 | 0.00 | 0.00 | 0.00 | 87 | 1011.6 |
| 20260506072005 | 56 | 173 | 1.0 | 3.0 | 0.00 | 0.00 | 0.00 | 86 | 1011.7 |
| 20260506071004 | 56 | 233 | 1.0 | 7.0 | 0.00 | 0.00 | 0.00 | 86 | 1011.7 |
| 20260506070505 | 56 | 225 | 2.0 | 8.0 | 0.00 | 0.00 | 0.00 | 86 | 1011.7 |
| 20260506062504 | 56 | 222 | 1.0 | 3.0 | 0.00 | 0.00 | 0.00 | 85 | 1011.6 |
| 20260506062004 | 56 | 214 | 1.0 | 3.0 | 0.00 | 0.00 | 0.00 | 85 | 1011.7 |
| 20260506051005 | 57 | 283 | 1.0 | 2.0 | 0.00 | 0.00 | 0.00 | 82 | 1012.0 |
| 20260506050505 | 58 | 261 | 2.0 | 6.0 | 0.00 | 0.00 | 0.00 | 82 | 1012.1 |
| 20260506045004 | 58 | 185 | 1.0 | 3.0 | 0.00 | 0.00 | 0.00 | 81 | 1012.0 |
| 20260506044505 | 58 | 206 | 1.0 | 3.0 | 0.00 | 0.00 | 0.00 | 80 | 1012.1 |
| 20260506044005 | 59 | 252 | 2.0 | 10.0 | 0.00 | 0.00 | 0.00 | 80 | 1012.1 |
| 20260506043505 | 59 | 222 | 2.0 | 10.0 | 0.00 | 0.00 | 0.00 | 80 | 1012.2 |
| 20260506041505 | 59 | 239 | 3.0 | 7.0 | 0.00 | 0.00 | 0.00 | 80 | 1012.1 |
| 20260506041004 | 59 | 221 | 4.0 | 10.0 | 0.00 | 0.00 | 0.00 | 80 | 1012.1 |
| 20260506040505 | 59 | 206 | 3.0 | 8.0 | 0.00 | 0.00 | 0.00 | 80 | 1012.2 |
| 20260506035504 | 59 | 211 | 3.0 | 10.0 | 0.00 | 0.00 | 0.00 | 80 | 1012.2 |
| 20260506035005 | 59 | 229 | 3.0 | 12.0 | 0.00 | 0.00 | 0.00 | 80 | 1012.2 |
| 20260506034004 | 59 | 238 | 2.0 | 8.0 | 0.00 | 0.00 | 0.00 | 79 | 1012.1 |
| 20260506033504 | 60 | 226 | 3.0 | 7.0 | 0.00 | 0.00 | 0.00 | 79 | 1012.1 |
| 20260506032504 | 60 | 205 | 5.0 | 13.0 | 0.00 | 0.00 | 0.00 | 78 | 1012.0 |
| 20260506032004 | 60 | 214 | 3.0 | 16.0 | 0.00 | 0.00 | 0.00 | 78 | 1012.0 |
| 20260506031505 | 60 | 186 | 3.0 | 10.0 | 0.00 | 0.00 | 0.00 | 78 | 1012.0 |
| 20260506031004 | 60 | 246 | 5.0 | 13.0 | 0.00 | 0.00 | 0.00 | 78 | 1012.2 |
| 20260506030004 | 60 | 218 | 5.0 | 10.0 | 0.00 | 0.00 | 0.00 | 77 | 1012.1 |
| 20260506025505 | 60 | 255 | 3.0 | 12.0 | 0.00 | 0.00 | 0.00 | 76 | 1012.0 |
| 20260506025004 | 60 | 236 | 4.0 | 12.0 | 0.00 | 0.00 | 0.00 | 76 | 1012.1 |
| 20260506024504 | 60 | 222 | 3.0 | 12.0 | 0.00 | 0.00 | 0.00 | 75 | 1012.0 |
| 20260506024004 | 60 | 240 | 5.0 | 12.0 | 0.00 | 0.00 | 0.00 | 74 | 1012.2 |
| 20260506023504 | 60 | 228 | 5.0 | 14.0 | 0.00 | 0.00 | 0.00 | 74 | 1012.1 |
| 20260506023004 | 60 | 232 | 6.0 | 12.0 | 0.00 | 0.00 | 0.00 | 74 | 1012.1 |
| 20260506022504 | 60 | 231 | 6.0 | 18.0 | 0.00 | 0.00 | 0.00 | 74 | 1012.1 |
| 20260506021004 | 61 | 250 | 5.0 | 13.0 | 0.00 | 0.00 | 0.00 | 73 | 1011.9 |
| 20260506020504 | 61 | 222 | 4.0 | 15.0 | 0.00 | 0.00 | 0.00 | 73 | 1011.7 |
| 20260506020004 | 61 | 205 | 3.0 | 15.0 | 0.00 | 0.00 | 0.00 | 73 | 1011.6 |
| 20260506015504 | 61 | 227 | 5.0 | 14.0 | 0.00 | 0.00 | 0.00 | 72 | 1011.6 |
| 20260506015005 | 61 | 239 | 5.0 | 13.0 | 0.00 | 0.00 | 0.00 | 72 | 1011.6 |
| 20260506014504 | 61 | 219 | 6.0 | 15.0 | 0.00 | 0.00 | 0.00 | 72 | 1011.6 |
| 20260506014004 | 61 | 232 | 6.0 | 12.0 | 0.00 | 0.00 | 0.00 | 72 | 1011.5 |
| 20260506013504 | 61 | 235 | 4.0 | 13.0 | 0.00 | 0.00 | 0.00 | 73 | 1011.5 |
| 20260506013004 | 61 | 230 | 7.0 | 15.0 | 0.00 | 0.00 | 0.00 | 73 | 1011.4 |
| 20260506012505 | 61 | 237 | 3.0 | 7.0 | 0.00 | 0.00 | 0.00 | 73 | 1011.5 |
| 20260506012004 | 61 | 260 | 5.0 | 10.0 | 0.00 | 0.00 | 0.00 | 73 | 1011.4 |
| 20260506011005 | 61 | 201 | 5.0 | 7.0 | 0.00 | 0.00 | 0.00 | 73 | 1011.4 |
| 20260506010504 | 61 | 241 | 3.0 | 10.0 | 0.00 | 0.00 | 0.00 | 73 | 1011.4 |
| 20260506010004 | 61 | 224 | 3.0 | 9.0 | 0.00 | 0.00 | 0.00 | 73 | 1011.3 |
| 20260506005004 | 61 | 275 | 3.0 | 8.0 | 0.00 | 0.00 | 0.00 | 72 | 1011.1 |
| 20260506004004 | 61 | 268 | 5.0 | 13.0 | 0.00 | 0.00 | 0.00 | 71 | 1011.0 |
| 20260506003504 | 62 | 238 | 3.0 | 17.0 | 0.00 | 0.00 | 0.00 | 71 | 1010.9 |
| 20260506003005 | 62 | 234 | 9.0 | 17.0 | 0.00 | 0.00 | 0.00 | 71 | 1010.9 |
| 20260506002005 | 62 | 233 | 5.0 | 12.0 | 0.00 | 0.00 | 0.00 | 70 | 1010.5 |
| 20260506000504 | 62 | 226 | 6.0 | 15.0 | 0.00 | 0.00 | 0.00 | 70 | 1010.3 |
| 20260506000004 | 62 | 219 | 6.0 | 20.0 | 0.00 | 0.00 | 0.00 | 70 | 1010.0 |
| 20260505234506 | 62 | 214 | 5.0 | 15.0 | 0.00 | 0.00 | 0.00 | 70 | 1010.1 |
| 20260505234004 | 62 | 174 | 3.0 | 6.0 | 0.00 | 0.00 | 0.00 | 69 | 1010.0 |
| 20260505233504 | 62 | 208 | 5.0 | 13.0 | 0.00 | 0.00 | 0.00 | 68 | 1010.0 |
| 20260505233004 | 63 | 237 | 6.0 | 23.0 | 0.00 | 0.00 | 0.00 | 67 | 1010.0 |
| 20260505232004 | 64 | 216 | 3.0 | 12.0 | 0.00 | 0.00 | 0.00 | 66 | 1009.9 |
| 20260505231505 | 64 | 226 | 9.0 | 20.0 | 0.00 | 0.00 | 0.00 | 65 | 1009.8 |
| 20260505231003 | 64 | 198 | 5.0 | 10.0 | 0.00 | 0.00 | 0.00 | 65 | 1009.7 |
| 20260505230505 | 65 | 240 | 6.0 | 24.0 | 0.00 | 0.00 | 0.00 | 65 | 1009.6 |
| 20260505230004 | 65 | 180 | 3.0 | 13.0 | 0.00 | 0.00 | 0.00 | 64 | 1009.4 |
| 20260505225505 | 65 | 223 | 5.0 | 14.0 | 0.00 | 0.00 | 0.00 | 65 | 1009.6 |
| 20260505224504 | 65 | 79 | 5.0 | 9.0 | 0.00 | 0.00 | 0.00 | 66 | 1009.9 |
| 20260505224004 | 65 | 253 | 3.0 | 12.0 | 0.00 | 0.00 | 0.00 | 66 | 1010.0 |
| 20260505223504 | 65 | 246 | 3.0 | 9.0 | 0.00 | 0.00 | 0.00 | 66 | 1009.9 |
| 20260505223004 | 65 | 177 | 1.0 | 3.0 | 0.00 | 0.00 | 0.00 | 67 | 1009.8 |
| 20260505222504 | 65 | 190 | 3.0 | 10.0 | 0.00 | 0.00 | 0.00 | 65 | 1009.9 |
| 20260505222004 | 65 | 203 | 2.0 | 3.0 | 0.00 | 0.00 | 0.00 | 66 | 1009.9 |
| 20260505221504 | 65 | 220 | 4.0 | 8.0 | 0.00 | 0.00 | 0.00 | 66 | 1009.9 |
| 20260505221004 | 65 | 177 | 3.0 | 12.0 | 0.00 | 0.00 | 0.00 | 66 | 1009.8 |
| 20260505220504 | 65 | 232 | 3.0 | 8.0 | 0.00 | 0.00 | 0.00 | 66 | 1009.8 |
| 20260505220004 | 66 | 206 | 4.0 | 8.0 | 0.00 | 0.00 | 0.00 | 65 | 1009.8 |
| 20260505215504 | 66 | 212 | 3.0 | 9.0 | 0.00 | 0.00 | 0.00 | 65 | 1009.7 |
| 20260505215004 | 66 | 202 | 3.0 | 8.0 | 0.00 | 0.00 | 0.00 | 65 | 1009.7 |
| 20260505214504 | 66 | 219 | 3.0 | 9.0 | 0.00 | 0.00 | 0.00 | 64 | 1009.6 |
| 20260505214005 | 67 | 229 | 4.0 | 13.0 | 0.00 | 0.00 | 0.00 | 65 | 1009.6 |
| 20260505213504 | 67 | 206 | 2.0 | 7.0 | 0.00 | 0.00 | 0.00 | 65 | 1009.5 |
| 20260505212505 | 66 | 238 | 3.0 | 12.0 | 0.00 | 0.00 | 0.00 | 66 | 1009.5 |
| 20260505212004 | 66 | 208 | 3.0 | 7.0 | 0.00 | 0.00 | 0.00 | 66 | 1009.7 |
| 20260505211504 | 66 | 144 | 3.0 | 10.0 | 0.00 | 0.00 | 0.00 | 65 | 1009.7 |
| 20260505211004 | 66 | 186 | 2.0 | 5.0 | 0.00 | 0.00 | 0.00 | 66 | 1009.7 |
| 20260505210504 | 66 | 211 | 2.0 | 6.0 | 0.00 | 0.00 | 0.00 | 65 | 1009.7 |
| 20260505210004 | 67 | 229 | 2.0 | 6.0 | 0.00 | 0.00 | 0.00 | 66 | 1009.7 |
| 20260505205004 | 66 | 190 | 3.0 | 9.0 | 0.00 | 0.00 | 0.00 | 65 | 1009.4 |
| 20260505204503 | 67 | 235 | 5.0 | 10.0 | 0.00 | 0.00 | 0.00 | 64 | 1009.5 |
| 20260505204004 | 67 | 215 | 4.0 | 14.0 | 0.00 | 0.00 | 0.00 | 63 | 1009.5 |
| 20260505203505 | 68 | 227 | 5.0 | 13.0 | 0.00 | 0.00 | 0.00 | 64 | 1009.5 |
| 20260505202504 | 68 | 211 | 3.0 | 6.0 | 0.00 | 0.00 | 0.00 | 62 | 1009.7 |
| 20260505201004 | 68 | 206 | 3.0 | 9.0 | 0.00 | 0.00 | 0.00 | 64 | 1009.7 |
| 20260505200504 | 68 | 241 | 4.0 | 13.0 | 0.00 | 0.00 | 0.00 | 63 | 1009.8 |
| 20260505200005 | 68 | 248 | 5.0 | 9.0 | 0.00 | 0.00 | 0.00 | 62 | 1009.8 |
| 20260505195504 | 69 | 190 | 3.0 | 10.0 | 0.00 | 0.00 | 0.00 | 64 | 1009.8 |
| 20260505194004 | 69 | 205 | 2.0 | 8.0 | 0.00 | 0.00 | 0.00 | 62 | 1010.0 |
| 20260505193504 | 69 | 216 | 5.0 | 13.0 | 0.00 | 0.00 | 0.00 | 61 | 1010.0 |
| 20260505193004 | 69 | 221 | 3.0 | 13.0 | 0.00 | 0.00 | 0.00 | 62 | 1010.1 |
| 20260505192504 | 69 | 224 | 3.0 | 12.0 | 0.00 | 0.00 | 0.00 | 62 | 1010.2 |
| 20260505192004 | 70 | 231 | 3.0 | 7.0 | 0.00 | 0.00 | 0.00 | 62 | 1010.2 |
| 20260505191504 | 69 | 199 | 2.0 | 10.0 | 0.00 | 0.00 | 0.00 | 62 | 1010.3 |
| 20260505191004 | 70 | 231 | 6.0 | 12.0 | 0.00 | 0.00 | 0.00 | 61 | 1010.2 |
| 20260505190504 | 70 | 203 | 2.0 | 8.0 | 0.00 | 0.00 | 0.00 | 64 | 1010.3 |
| 20260505190004 | 70 | 244 | 3.0 | 5.0 | 0.00 | 0.00 | 0.00 | 62 | 1010.3 |
| 20260505185504 | 70 | 210 | 3.0 | 10.0 | 0.00 | 0.00 | 0.00 | 64 | 1010.3 |
| 20260505185004 | 70 | 194 | 3.0 | 13.0 | 0.00 | 0.00 | 0.00 | 62 | 1010.3 |
| 20260505183503 | 70 | 182 | 3.0 | 5.0 | 0.00 | 0.00 | 0.00 | 62 | 1010.3 |